Location: Holbach
(51.5399°N, 10.6036°E)
Time: 10:29:53
(UTC+00:00)

Cosmos 1092 Rocket - Pass Details

Date: 18 June 2021
Orbit: 955 x 994 km, 82.9° (Epoch: 28 July)

Event Time Altitude Azimuth Distance (km) Brightness Sun altitude
Exits shadow 02:05:30 - 212° (SSW) 2,884 5.8 -6.6°
Reaches altitude 10° 02:06:04 10° 214° (SSW) 2,682 5.6 -6.6°
Maximum altitude 02:11:58 48° 288° (WNW) 1,237 4.5 -6.0°
Drops below altitude 10° 02:17:55 10° 2° (N) 2,702 7.2 -5.4°
Sets 02:20:32 0° 8° (N) 3,655 8.1 -5.1°
